sat.trackr.live / text

‹ back to catalog

STARLINK-31202

NORAD 59042 · 2024-038V

PAYLOAD ACTIVE UNKNOWN

§ Identity

Operator
Country
US
Launch date
2024-02-25
Launch site
AFETR
Launch vehicle
Mass (kg)
RCS (m²)

Purposes: comms

External: N2YO · Heavens-Above · Gunter

§ Orbital elements

Epoch: 2026-09-20T06:22:01.855200Z

Period
94.47 min
Inclination
42.9994°
Eccentricity
0.0001048
Mean motion
15.24245500 rev/d
Perigee alt
492.3 km
Apogee alt
493.8 km
Semi-major
6,871.2 km
B*
5.4875e-5
RAAN
2.3373°
Arg perigee
271.2251°
Mean anomaly
88.8479°
Rev number
14,464

§ Raw data

STARLINK-312021 59042U 24038V   26263.26529925  .00001113  00000+0  54875-4 0  99942 59042  42.9994   2.3373 0001048 271.2251  88.8479 15.24245500144641

JSON: /api/v1/satellites/59042 · /tle

For live sub-satellite position, see the globe view (requires WebGL).

§ Visibility from observer

Set your observer location to see the next 7 days of passes ≥ 10°. The values pass through the URL so the page stays shareable.

No JS? Fill the form by hand. The geolocation button needs JavaScript.